Location: Moena
(46.3667°N, 11.6500°E)
Time: 10:13:22
(UTC+00:00)

GP-B - Pass Details

Date: 25 June 2021
Orbit: 631 x 635 km, 89.8° (Epoch: 28 July)

Event Time Altitude Azimuth Distance (km) Brightness Sun altitude
Rises 23:28:55 0° 353° (N) 2,943 8.1 -20.2°
Reaches altitude 10° 23:31:17 10° 345° (NNW) 2,029 6.7 -20.2°
Maximum altitude 23:35:20 35° 280° (W) 1,029 4.2 -20.1°
Enters shadow 23:36:40 29° 244° (WSW) 1,178 4.2 -20.1°
